Content
SEND FEEDBACK

Daily
Averages
Monthly
Summary
Canada

BEDFORD, QUEBEC


Home > North America > Canada > Quebec
Elevation: 174 feet     Latitude: 45 28N     Longitude: 073 45W

WEATHER
 
SELECT A DAY
Number of Records: 201,513;   Date Range: 1/1/95 - 10/23/14
 
SHARE

PRINT THIS DATA

[ ← Previous Day ]
WEATHER ALMANAC - FEBRUARY 8, 2013
[ Next Day → ]
[ °C ]   °F
Weather ElementAverageHighLow
Temperature7.3 °F12.2 °F (4:00 pm)1 °F (1:00 am)
Humidity72.3 %85 % (3:00 pm)38 % (1:00 am)
Wind Speed24.7 mph38 mph (3:35 pm)
Wind Gust38 mph (6:53 pm)
Weather ElementAverage
Visibility1.8 mi
Wind Direction (404.1 °)

Weather ElementTotal
Precipitation---
Heating Degree Days58.4 (Base 65)
Averaged from 48 records on February 8, 2013
WEATHER CONDITIONS BREAKOUT
WIND DIRECTION BREAKOUT
WEATHER BY HOUR - FEBRUARY 8, 2013
[ °C ]   °F
Local TimeTemperatureDewpointHumidityBarometerVisibilityWind DirectionWind SpeedGust SpeedPrecipitationEventsConditions
12:21 AM1.4 °F0.0 °F15.0 miNNE (30°)17.3 mphSnowLight Snow
1:00 AM1.0 °F-12.0 °F38 %30.47 in6.0 miNNE (30°)17.3 mphSnowLight Snow
1:00 AM1.4 °F-11.2 °F56 %30.47 in6.0 miNE (40°)16.1 mphSnowLight Snow
2:00 AM1.4 °F-7.6 °F66 %30.47 in1.8 miNNE (30°)15.0 mphSnowLight Snow
3:00 AM1.4 °F-7.6 °F66 %30.44 in1.8 miNNE (30°)16.1 mphSnowLight Snow
3:47 AM1.4 °F0.0 °F3.0 miNE (40°)19.6 mph26.5 mphSnowLight Snow
4:00 AM1.4 °F-5.8 °F72 %30.41 in2.5 miNNE (30°)15.0 mph23.0 mphSnowLight Snow
4:48 AM1.4 °F0.0 °F4.0 miNNE (30°)18.4 mphSnowLight Snow
5:00 AM1.4 °F-5.8 °F72 %30.39 in3.0 miNNE (30°)16.1 mphSnowLight Snow
5:21 AM1.4 °F0.0 °F1.8 miNE (40°)19.6 mphSnowLight Snow
6:00 AM1.4 °F-5.8 °F72 %30.37 in1.2 miNNE (30°)20.7 mphSnowLight Snow
7:00 AM1.4 °F-5.8 °F72 %30.36 in1.0 miNNE (30°)21.9 mph27.6 mphSnowLight Snow
7:00 AM1.0 °F-6.0 °F61 %30.36 in1.0 miNNE (30°)21.9 mphSnowLight Snow
7:21 AM1.4 °F0.0 °F0.0 mi23.0 (2013°)0.00 inLight Snow30
7:32 AM1.4 °F0.0 °F0.0 mi21.9 (2013°)0.00 inLight Snow30
8:00 AM1.4 °F-4.0 °F78 %30.35 in0.6 miNNE (30°)24.2 mphSnowLight Snow
8:26 AM3.2 °F0.0 °F0.0 mi20.7 (2013°)27.6 mph0.00 inLight Snow30
8:42 AM3.2 °F0.0 °F0.0 mi20.7 (2013°)27.6 mph0.00 inLight Snow30
9:00 AM3.2 °F-4.0 °F72 %30.34 in0.6 miNNE (30°)21.9 mph27.6 mphSnowLight Snow
10:00 AM5.0 °F-2.2 °F72 %30.32 in0.6 miNNE (30°)20.7 mphSnowLight Snow
11:00 AM6.8 °F-0.4 °F72 %30.30 in0.6 miNNE (30°)20.7 mph26.5 mphSnowLight Snow
12:00 PM8.6 °F1.4 °F73 %30.27 in0.6 miNNE (30°)26.5 mph33.4 mphSnowLight Snow
1:00 PM9.0 °F4.0 °F71 %30.24 in1.0 miNNE (20°)20.7 mphSnowLight Snow
1:00 PM8.6 °F3.2 °F79 %30.24 in0.6 miNE (40°)25.3 mph33.4 mphSnowLight Snow
2:00 PM10.4 °F5.0 °F79 %30.20 in0.8 miNNE (30°)26.5 mph32.2 mphSnowLight Snow
2:43 PM10.4 °F0.0 °F1.2 miNE (40°)26.5 mph32.2 mphSnowLight Snow
2:54 PM10.4 °F0.0 °F0.0 mi26.5 (2013°)35.7 mph0.00 inLight Snow40
3:00 PM10.4 °F6.8 °F85 %30.18 in0.6 miNE (40°)27.6 mph35.7 mphSnowLight Snow
3:22 PM10.4 °F0.0 °F0.0 mi28.8 (2013°)34.5 mph0.00 inLight Snow40
3:35 PM10.4 °F0.0 °F0.0 mi28.8 (2013°)38.0 mph0.00 inLight Snow40
4:00 PM12.2 °F6.8 °F79 %30.15 in1.0 miNNE (30°)25.3 mph33.4 mphSnowLight Snow
4:42 PM12.2 °F0.0 °F0.0 mi26.5 (2013°)34.5 mph0.00 inLight Snow30
5:00 PM12.2 °F6.8 °F79 %30.14 in0.6 miNE (40°)24.2 mph34.5 mphSnowLight Snow
5:09 PM12.2 °F0.0 °F0.0 mi26.5 (2013°)34.5 mph0.00 inLight Snow30
5:36 PM12.2 °F0.0 °F1.2 miNNE (30°)27.6 mph34.5 mphSnowLight Snow
6:00 PM12.2 °F6.8 °F79 %30.14 in1.0 miNNE (30°)27.6 mph35.7 mphSnowLight Snow
6:18 PM12.2 °F0.0 °F1.5 miNE (40°)28.8 mphSnowLight Snow
6:41 PM12.2 °F0.0 °F1.0 miNNE (30°)27.6 mph34.5 mphSnowLight Snow
6:53 PM12.2 °F0.0 °F1.2 miNNE (30°)27.6 mph38.0 mphSnowLight Snow
7:00 PM12.0 °F7.0 °F71 %30.14 in1.0 miNNE (30°)25.3 mphSnowLight Snow
7:00 PM12.2 °F6.8 °F79 %30.14 in1.0 miNNE (30°)23.0 mph38.0 mphSnowLight Snow
7:20 PM12.2 °F0.0 °F1.2 miNNE (30°)27.6 mph34.5 mphSnowLight Snow
7:35 PM12.2 °F0.0 °F1.5 miNNE (30°)29.9 mphSnowLight Snow
8:00 PM12.2 °F6.8 °F79 %30.14 in1.5 miNE (40°)27.6 mph33.4 mphSnowLight Snow
9:00 PM12.2 °F6.8 °F79 %30.14 in1.5 miNE (40°)25.3 mph33.4 mphSnowLight Snow
9:30 PM12.2 °F0.0 °F4.0 miNE (40°)24.2 mph34.5 mphSnowLight Snow
10:00 PM12.2 °F6.8 °F79 %30.15 in6.0 miNE (40°)26.5 mph33.4 mphSnowLight Snow
11:00 PM12.2 °F5.0 °F73 %30.14 in6.0 miNNE (30°)31.1 mph38.0 mphSnowLight Snow
Hourly data recorded from CYUL, located miles away from Bedford, Quebec







STORIES FROM OUR PARTNERS